Flag for France Weather past 2 weeks in Saint-Étienne, France

Now
88 °F

Sunny.


Feels Like: 85 °F
Forecast: 67 / 77 °F
Wind: 3 mph from North

Location: St-Etienne Boutheon

Current Time: Aug 3, 2015 at 1:03:32 PM

Latest Report: Aug 3, 2015 at 12:30 PM


Visibility: 10 mi

Pressure: 30.07 "Hg (28.33 "Hg at 529m altitude)

Humidity: 27%

Dew point: 50 °F

Location of Saint-ÉtienneLocation

Historic Weather in Saint-Étienne — Graph

°F

Saint-Étienne temperature yesterday

Maximum temperature yesterday: 86 °F (at 5:00 PM)
Minimum temperature yesterday: 55 °F (at 4:30 AM)
Average temperature yesterday: 70 °F

Past Weeks' High & Low Weather Summary

 TemperatureHumidityPressure
High95 °F (Jul 21, 6:30 PM)100% (Aug 2, 5:00 AM)30.09 "Hg (Aug 2, 5:00 AM)
Low45 °F (Jul 31, 6:30 AM)22% (Jul 26, 2:30 PM)29.74 "Hg (Jul 24, 4:30 PM)
Average71 °F56%29.99 "Hg
* Reported Jul 19 11:00 AM — Aug 3 11:30 AM, Saint-Étienne, Weather by CustomWeather, © 2015

Note: Actual official high and low records may vary slightly from our data, if they occured in-between our weather recording intervals... More about our weather records

Advertising

Saint-Étienne weather history for previous 24 hours

 ConditionsComfort  
Time TempWeatherWind HumidityBarometerVisibility
11:30 AM
Mon, Aug 3
84 °FSunny.2 mph33%30.07 "Hg10 mi
11:00 AM82 °FSunny.3 mph37%30.07 "Hg10 mi
10:30 AM81 °FSunny.2 mph39%30.07 "Hg10 mi
10:00 AM77 °FSunny.No wind44%30.07 "Hg10 mi
9:30 AM75 °FSunny.2 mph47%30.07 "Hg10 mi
9:00 AM73 °FSunny.8 mph50%30.07 "Hg10 mi
8:30 AM70 °FSunny.8 mph57%30.07 "Hg10 mi
8:00 AM68 °FSunny.8 mph60%30.07 "Hg10 mi
7:30 AM64 °FSunny.7 mph68%30.07 "Hg10 mi
7:00 AM63 °FClear.5 mph73%30.07 "Hg10 mi
6:00 AM63 °FClear.6 mph68%30.07 "Hg10 mi
5:30 AM64 °FPassing clouds.5 mph68%30.07 "HgN/A
5:00 AM63 °FClear.2 mph73%30.07 "Hg10 mi
4:30 AM64 °FClear.1 mph64%30.04 "Hg10 mi
4:00 AM64 °FClear.5 mph68%30.04 "Hg10 mi
3:30 AM64 °FClear.6 mph68%30.04 "Hg10 mi
3:00 AM66 °FClear.3 mph64%30.04 "Hg10 mi
2:30 AM64 °FClear.No wind68%30.04 "Hg10 mi
2:00 AM66 °FClear.1 mph64%30.04 "Hg10 mi
1:30 AM66 °FClear.3 mph68%30.04 "Hg10 mi
1:00 AM68 °FClear.3 mph60%30.04 "Hg10 mi
12:30 AM70 °FClear.No wind57%30.04 "Hg10 mi
12:00 AM72 °FClear.7 mph53%30.04 "Hg10 mi
11:30 PM
Sun, Aug 2
72 °FClear.6 mph53%30.04 "Hg10 mi
11:00 PM73 °FClear.5 mph50%30.04 "Hg10 mi
10:30 PM75 °FClear.6 mph47%30.04 "Hg10 mi
10:00 PM75 °FSunny.3 mph47%30.04 "Hg10 mi
9:30 PM77 °FSunny.8 mph44%30.01 "Hg10 mi
9:00 PM79 °FPassing clouds.7 mph42%30.01 "HgN/A
8:30 PM81 °FSunny.8 mph37%30.01 "Hg10 mi
8:00 PM82 °FPassing clouds.7 mph30%30.01 "HgN/A
7:30 PM84 °FPassing clouds.6 mph29%30.01 "HgN/A
7:00 PM84 °FPassing clouds.5 mph27%30.01 "HgN/A
6:30 PM84 °FPassing clouds.6 mph27%30.01 "HgN/A
6:00 PM84 °FSunny.6 mph27%30.01 "Hg10 mi
5:30 PM86 °FPassing clouds.7 mph27%30.01 "HgN/A
5:00 PM86 °FPassing clouds.5 mph27%30.01 "HgN/A
4:30 PM84 °FPassing clouds.5 mph29%30.04 "HgN/A
4:00 PM84 °FSunny.5 mph29%30.04 "Hg10 mi
3:30 PM82 °FPassing clouds.9 mph30%30.04 "HgN/A
3:00 PM82 °FPassing clouds.8 mph32%30.04 "HgN/A
2:30 PM81 °FPassing clouds.8 mph32%30.07 "HgN/A
2:00 PM81 °FPassing clouds.8 mph34%30.07 "HgN/A
1:30 PM79 °FPassing clouds.8 mph42%30.07 "HgN/A
1:00 PM77 °FPassing clouds.3 mph47%30.07 "HgN/A
Weather by CustomWeather, © 2015

See weather overviewHow to use our weather pages